Location: Unspecified
(0.0000°N, 0.0000°E)
Time: 17:31:01
(UTC+00:00)

Sep Motor Cover - Visible Passes

Search period start: 14 January 2026 00:00
Search period end: 24 January 2026 00:00
Orbit: 838 x 1128 km, 71.0° (Epoch: 14 January)

Date Brightness Start Highest point End Pass type
(mag) Time Alt. Az. Time Alt. Az. Time Alt. Az.
14 Jan ? 19:48:17 10° SSW 19:54:02 89° WNW 19:56:07 43° NNE visible
15 Jan ? 18:31:18 10° SE 18:34:57 17° ESE 18:38:42 10° ENE visible
15 Jan ? 20:16:31 10° SW 20:21:42 34° WNW 20:24:25 23° NNW visible
16 Jan ? 18:57:01 10° S 19:02:30 46° ESE 19:07:57 12° NE visible
16 Jan ? 20:47:03 10° W 20:49:28 13° WNW 20:51:57 10° NW visible
17 Jan ? 19:24:21 10° SSW 19:30:06 69° WNW 19:36:15 10° N visible
18 Jan ? 19:53:00 10° SW 19:57:48 26° WNW 20:02:51 10° NNW visible
19 Jan ? 05:29:46 10° NE 05:32:11 12° ENE 05:34:32 10° E visible
19 Jan ? 18:32:50 10° S 18:38:33 61° ESE 18:44:39 10° NNE visible
20 Jan ? 19:00:31 10° SSW 19:06:11 52° WNW 19:12:14 10° N visible
21 Jan ? 19:29:41 10° WSW 19:33:54 20° WNW 19:38:20 10° NNW visible
22 Jan ? 05:04:24 10° NE 05:08:20 16° ENE 05:12:08 10° ESE visible
23 Jan ? 05:29:48 10° N 05:36:07 39° ENE 05:42:05 10° SE visible
23 Jan ? 18:36:47 10° SW 18:42:15 40° WNW 18:48:06 10° N visible
